#timestamp,LO_Frequency,Hit,StdDev 
1551214815.8,286047000.8,N
1551214835.6,286047001.6,N
1551214855.4,286047003.2,N
1551214875.3,286047006.7,Y
1551214895.1,286047001.9,P
1551214915.9,286047002.3,P
1551214935.7,286047001.3,P
1551214955.5,286047000.6,N
1551214975.4,286046996.6,Y
1551214995.2,286046995.3,P
1551215015.1,286046997.7,N
1551215016.0,286046997.7,N
1551215035.8,286046996.5,N
1551215055.6,286046999.3,N
1551215075.5,286046999.2,N
1551215095.3,286046999.0,N
1551215115.2,286046997.1,N
1551215135.9,286046999.1,N
1551215155.7,286046999.1,N
1551215175.6,286046997.2,N
1551215195.4,286046997.4,N
1551215215.2,286046999.3,N
1551215235.1,286046998.2,N
1551215236.0,286046998.2,N
1551215255.8,286046998.7,N
1551215275.7,286046999.4,N
1551215295.5,286046998.5,N
1551215315.3,286047000.9,N
1551215335.2,286047000.0,N
1551215355.0,286047000.4,N
1551215355.9,286047000.4,N
1551215375.7,286047002.2,N
1551215395.6,286047000.1,N
1551215415.4,286046999.9,N
1551215435.3,286046998.4,N
1551215455.1,286046999.0,N
1551215456.0,286046999.0,N
1551215475.8,286047000.0,N
1551215495.7,286047002.3,N
1551215515.5,286047002.7,N
1551215535.3,286047002.7,N
1551215555.2,286047001.4,N
1551215575.0,286047002.7,N
1551215575.9,286047002.7,N
1551215595.8,286047000.1,N
1551215615.6,286047002.8,N
1551215635.4,286047000.5,N
1551215655.3,286047002.2,N
1551215675.1,286047000.7,N
1551215695.9,286047000.5,N
1551215715.7,286047001.7,N
1551215735.5,286047000.9,N
1551215755.4,286047000.0,N
1551215775.2,286047000.4,N
1551215795.0,286047000.9,N
1551215795.9,286047000.9,N
1551215815.8,286046998.2,N
1551215835.6,286047001.1,N
1551215855.5,286046999.2,N
1551215875.3,286046997.6,N
1551215895.1,286046999.5,N
1551215915.9,286046996.5,N
1551215935.7,286046998.1,N
1551215955.5,286046996.5,N
1551215975.4,286046996.8,N
1551215995.2,286046997.9,N
1551216015.1,286046999.6,N
1551216016.0,286046999.6,N
1551216035.8,286046999.1,N
1551216055.6,286046998.5,N
1551216075.5,286046999.4,N
1551216095.3,286046998.3,N
1551216115.2,286046999.0,N
1551216135.9,286046998.2,N
1551216155.7,286047001.2,N
1551216175.6,286047003.3,N
1551216195.4,286047000.9,N
1551216215.2,286046998.3,N
1551216235.1,286046996.6,N
1551216236.0,286046996.6,N
1551216255.8,286046996.5,N
1551216275.7,286046999.0,N
1551216295.5,286046998.3,N
1551216315.3,286046999.9,N
1551216335.2,286047002.4,N
1551216355.0,286047004.3,N
1551216355.9,286047004.3,N
1551216375.8,286047002.4,N
1551216395.6,286046999.8,N
1551216415.4,286047003.2,N
1551216435.3,286047005.4,N
1551216455.1,286047007.0,N
1551216475.8,286047009.0,Y
1551216495.7,286047008.4,P
1551216515.5,286047007.2,N
1551216535.4,286047007.0,N
1551216555.2,286047004.8,N
1551216575.0,286047005.5,N
1551216575.9,286047005.5,N
1551216595.8,286047005.7,N
1551216615.6,286047004.8,N
1551216635.4,286047005.3,N
1551216655.3,286047005.3,N
1551216675.1,286047007.4,Y
1551216695.9,286046998.5,P
1551216715.7,286047000.4,N
1551216735.5,286047000.1,N
1551216755.4,286047000.4,N
1551216775.2,286046998.5,N
1551216795.1,286046999.0,N
1551216796.0,286046999.0,N
1551216845.8,286046998.7,E
1551216855.4,286046998.3,N
1551216875.3,286047001.0,P
1551216895.1,286046998.2,N
1551216915.8,286046996.7,N
1551216935.7,286046999.5,N
1551216955.5,286046996.5,N
1551216975.4,286046998.9,N
1551216995.2,286046998.1,N
1551217015.0,286047001.4,N
1551217015.9,286047001.4,N
1551217035.8,286046999.9,N
1551217055.6,286047000.0,N
1551217075.5,286047000.3,N
1551217095.3,286047000.8,N
1551217115.1,286046998.1,N
1551217135.9,286047000.8,N
1551217155.7,286046998.4,N
1551217175.5,286047001.0,N
1551217195.4,286047001.6,N
1551217215.2,286047000.8,N
1551217235.0,286046996.8,N
1551217236.0,286046996.8,N
1551217255.8,286046996.8,N
1551217275.6,286046997.3,N
1551217295.5,286047001.2,N
1551217315.3,286047000.7,N
1551217335.1,286047002.1,N
1551217355.9,286047000.7,N
1551217375.7,286046998.6,N
1551217395.6,286046996.6,N
1551217415.4,286046998.6,N
1551217435.2,286046999.6,N
1551217455.1,286046999.4,N
1551217456.0,286046999.4,N
1551217475.8,286046998.6,N
1551217495.6,286046999.6,N
1551217515.5,286046997.7,N
1551217535.3,286046995.2,N
1551217555.2,286046995.7,N
1551217575.9,286046996.5,N
1551217595.7,286046999.2,N
1551217615.6,286046998.8,N
1551217635.4,286046998.5,N
1551217655.2,286047000.7,N
1551217675.1,286047000.3,N
1551217676.0,286047000.3,N
1551217695.8,286047000.7,N
1551217715.7,286047000.7,N
1551217735.5,286047002.8,N
1551217755.3,286047000.5,N
1551217775.2,286047001.0,N
1551217795.0,286046998.5,N
1551217795.9,286046998.5,N
1551217815.8,286046999.6,N
1551217835.6,286046997.5,N
1551217855.4,286046999.6,N
1551217875.3,286046999.5,N
1551217895.1,286047000.1,N
1551217915.8,286047000.1,N
1551217935.7,286046999.3,N
1551217955.5,286046996.5,N
1551217975.4,286046997.0,N
1551217995.2,286046995.7,N
1551218015.0,286046995.0,N
1551218015.9,286046995.0,N
1551218035.8,286046996.0,N
1551218055.6,286046997.6,N
1551218075.5,286046997.2,N
1551218095.3,286046998.0,N
1551218115.1,286046996.9,N
1551218135.9,286047000.7,N
1551218155.7,286047000.4,N
1551218175.5,286047003.8,N
1551218195.4,286047001.2,N
1551218215.2,286047000.8,N
1551218235.1,286046996.9,N
1551218236.0,286046996.9,N
1551218255.8,286047000.8,N
1551218275.6,286046998.7,N
1551218295.5,286047000.0,N
1551218315.3,286046999.8,N
1551218335.2,286047000.7,N
1551218355.9,286047000.9,N
1551218375.7,286047002.1,N
1551218395.6,286047004.4,N
